NC4M Weather Reports


time (UTC)temp
C
wind
direction
speed
KPH
gust
KPH
rain 1hr
cm
rain 24hr
cm
rain mn
cm
humidity
%
barometer
mb
20260906155735 30 43 0.0 1.6 0.00 0.00 0.00 69 1017.1
20260906155230 30 58 0.0 1.6 0.00 0.00 0.00 71 1017.3
20260906154725 30 54 0.0 3.2 0.00 0.00 0.00 72 1017.3
20260906154221 30 43 3.2 3.2 0.00 0.00 0.00 72 1017.5
20260906153719 30 37 1.6 3.2 0.00 0.00 0.00 72 1017.1
20260906153214 30 254 1.6 3.2 0.00 0.00 0.00 72 1017.3
20260906152709 29 51 0.0 3.2 0.00 0.00 0.00 72 1017.3
20260906152209 29 205 0.0 3.2 0.00 0.00 0.00 73 1017.0
20260906151703 29 59 1.6 3.2 0.00 0.00 0.00 73 1017.0
20260906151159 28 115 0.0 1.6 0.00 0.00 0.00 75 1017.1
20260906150654 29 46 1.6 3.2 0.00 0.00 0.00 74 1017.0
20260906150149 29 59 1.6 1.6 0.00 0.00 0.00 73 1016.9
20260906145649 28 146 0.0 1.6 0.00 0.00 0.00 73 1016.8
20260906145149 28 59 1.6 1.6 0.00 0.00 0.00 73 1016.8
20260906144648 28 116 1.6 3.2 0.00 0.00 0.00 74 1016.8
20260906144143 28 119 0.0 3.2 0.00 0.00 0.00 75 1016.7
20260906143643 28 162 0.0 3.2 0.00 0.00 0.00 76 1016.7
20260906143140 28 117 0.0 1.6 0.00 0.00 0.00 75 1016.8
20260906142639 28 84 0.0 1.6 0.00 0.00 0.00 76 1016.8
20260906142135 27 84 0.0 1.6 0.00 0.00 0.00 76 1016.6
20260906141633 27 124 0.0 1.6 0.00 0.00 0.00 76 1016.6
20260906141129 27 202 1.6 1.6 0.00 0.00 0.00 76 1016.7
20260906140628 27 122 0.0 1.6 0.00 0.00 0.00 76 1016.7
20260906140123 27 112 1.6 1.6 0.00 0.00 0.00 78 1016.6
20260906135620 26 239 0.0 1.6 0.00 0.00 0.00 79 1016.5
20260906135116 26 79 1.6 3.2 0.00 0.00 0.00 80 1016.6
20260906134611 26 106 0.0 3.2 0.00 0.00 0.00 81 1016.7
20260906134107 26 53 0.0 1.6 0.00 0.00 0.00 81 1016.7
20260906133602 26 113 0.0 1.6 0.00 0.00 0.00 82 1016.6
20260906133057 26 207 0.0 1.6 0.00 0.00 0.00 84 1016.5
20260906132552 25 36 0.0 1.6 0.00 0.00 0.00 85 1016.7
20260906132048 25 45 1.6 1.6 0.00 0.00 0.00 85 1016.7
20260906131543 25 113 0.0 1.6 0.00 0.00 0.00 86 1016.3
20260906131038 25 36 1.6 3.2 0.00 0.00 0.00 87 1016.7
20260906130538 25 102 0.0 1.6 0.00 0.00 0.00 88 1016.3
20260906130033 25 90 0.0 1.6 0.00 0.00 0.00 88 1016.3
20260906125530 25 43 0.0 1.6 0.00 0.00 0.00 88 1016.3
20260906125030 25 43 0.0 0.0 0.00 0.00 0.00 89 1016.4
20260906124526 24 44 0.0 0.0 0.00 0.00 0.00 89 1016.3
20260906124021 24 43 0.0 3.2 0.00 0.00 0.00 89 1016.0
20260906123520 24 188 0.0 3.2 0.00 0.00 0.00 90 1016.2
20260906123016 24 223 0.0 0.0 0.00 0.00 0.00 90 1016.0
20260906122515 23 223 0.0 0.0 0.00 0.00 0.00 90 1015.9
20260906122011 23 223 0.0 0.0 0.00 0.00 0.00 90 1016.1
20260906121507 23 223 0.0 0.0 0.00 0.00 0.00 91 1015.8
20260906121003 23 223 0.0 0.0 0.00 0.00 0.00 91 1015.9
20260906120458 23 223 0.0 0.0 0.00 0.00 0.00 91 1015.9
20260906115954 23 223 0.0 0.0 0.00 0.00 0.00 92 1015.9
20260906115450 23 223 0.0 0.0 0.00 0.00 0.00 93 1016.0
20260906114950 22 223 0.0 0.0 0.00 0.00 0.00 93 1015.8
20260906114444 22 223 0.0 0.0 0.00 0.00 0.00 94 1016.1
20260906113941 22 223 0.0 0.0 0.00 0.00 0.00 93 1015.8
20260906113439 22 223 0.0 0.0 0.00 0.00 0.00 93 1015.8
20260906112935 22 223 0.0 0.0 0.00 0.00 0.00 93 1015.6
20260906112430 22 223 0.0 0.0 0.00 0.00 0.00 93 1015.8
20260906111926 22 223 0.0 0.0 0.00 0.00 0.00 93 1015.8
20260906111425 22 223 0.0 0.0 0.00 0.00 0.00 93 1015.6
20260906110920 22 223 0.0 0.0 0.00 0.00 0.00 93 1015.5
20260906110415 22 223 0.0 0.0 0.00 0.00 0.00 92 1015.5
20260906105914 22 223 0.0 0.0 0.00 0.00 0.00 92 1015.6
20260906105410 22 223 0.0 0.0 0.00 0.00 0.00 92 1015.4
20260906104906 22 223 0.0 0.0 0.00 0.00 0.00 92 1015.4
20260906104404 22 223 0.0 0.0 0.00 0.00 0.00 92 1015.5
20260906103903 22 223 0.0 0.0 0.00 0.00 0.00 92 1015.3
20260906103402 22 223 0.0 0.0 0.00 0.00 0.00 93 1015.6
20260906102858 22 223 0.0 0.0 0.00 0.00 0.00 93 1015.5
20260906102357 22 223 0.0 0.0 0.00 0.00 0.00 93 1015.4
20260906101852 22 223 0.0 0.0 0.00 0.00 0.00 94 1015.3
20260906101347 22 223 0.0 0.0 0.00 0.00 0.00 93 1015.3
20260906100843 22 223 0.0 0.0 0.00 0.00 0.00 93 1015.0
20260906100341 22 223 0.0 0.0 0.00 0.00 0.00 93 1015.2
20260906095837 22 223 0.0 0.0 0.00 0.00 0.00 93 1015.0
20260906095332 22 223 0.0 0.0 0.00 0.00 0.00 93 1015.1
20260906094832 22 223 0.0 0.0 0.00 0.00 0.00 93 1015.1
20260906094327 22 223 0.0 0.0 0.00 0.00 0.00 93 1015.1
20260906093823 22 223 0.0 0.0 0.00 0.00 0.00 93 1015.1
20260906093319 22 223 0.0 0.0 0.00 0.00 0.00 93 1015.0
20260906092814 22 223 0.0 0.0 0.00 0.00 0.00 93 1014.8
20260906092313 22 223 0.0 0.0 0.00 0.00 0.00 93 1014.9
20260906091809 22 223 0.0 0.0 0.00 0.00 0.00 93 1014.8
20260906091305 22 223 0.0 0.0 0.00 0.00 0.00 93 1014.7
20260906090801 22 223 0.0 0.0 0.00 0.00 0.00 93 1014.7
20260906090300 22 223 0.0 0.0 0.00 0.00 0.00 93 1014.5
20260906085801 22 223 0.0 0.0 0.00 0.00 0.00 92 1014.5
20260906085259 22 223 0.0 0.0 0.00 0.00 0.00 92 1014.7
20260906084754 22 223 0.0 0.0 0.00 0.00 0.00 92 1014.5
20260906084254 22 223 0.0 0.0 0.00 0.00 0.00 92 1014.7
20260906083749 22 223 0.0 0.0 0.00 0.00 0.00 92 1014.7
20260906083245 22 223 0.0 0.0 0.00 0.00 0.00 92 1014.8
20260906082739 23 223 0.0 0.0 0.00 0.00 0.00 91 1014.7
20260906082234 23 223 0.0 0.0 0.00 0.00 0.00 91 1014.6
20260906081730 23 223 0.0 0.0 0.00 0.00 0.00 91 1014.7
20260906081225 23 223 0.0 0.0 0.00 0.00 0.00 90 1014.6
20260906080722 23 223 0.0 0.0 0.00 0.00 0.00 90 1014.5
20260906080218 23 223 0.0 0.0 0.00 0.00 0.00 90 1014.9
20260906075717 23 223 0.0 0.0 0.00 0.00 0.00 90 1014.5
20260906075212 23 223 0.0 0.0 0.00 0.00 0.00 90 1014.6
20260906074707 23 223 0.0 0.0 0.00 0.00 0.00 90 1014.5
20260906074207 23 223 0.0 0.0 0.00 0.00 0.00 90 1014.5
20260906073702 23 223 0.0 0.0 0.00 0.00 0.00 90 1014.5
20260906073157 23 223 0.0 0.0 0.00 0.00 0.00 89 1014.8
20260906072652 23 223 0.0 0.0 0.00 0.00 0.00 89 1014.8
20260906072148 23 223 0.0 0.0 0.00 0.00 0.00 89 1014.7
20260906071644 23 223 0.0 0.0 0.00 0.00 0.00 89 1014.7
20260906071143 23 223 0.0 0.0 0.00 0.00 0.00 88 1014.8
20260906070640 23 223 0.0 0.0 0.00 0.00 0.00 88 1014.9
20260906070136 23 223 0.0 0.0 0.00 0.00 0.00 89 1014.7
20260906065635 23 223 0.0 0.0 0.00 0.00 0.00 89 1014.8
20260906065131 23 223 0.0 0.0 0.00 0.00 0.00 89 1015.0
20260906064626 23 223 0.0 0.0 0.00 0.00 0.00 89 1015.0
20260906064121 23 223 0.0 0.0 0.00 0.00 0.00 89 1015.0
20260906063616 23 223 0.0 0.0 0.00 0.00 0.00 88 1015.0
20260906063112 23 223 0.0 0.0 0.00 0.00 0.00 88 1014.9
20260906062608 23 223 0.0 0.0 0.00 0.00 0.00 88 1015.1
20260906062106 23 223 0.0 0.0 0.00 0.00 0.00 87 1014.9
20260906061603 23 223 0.0 0.0 0.00 0.00 0.00 87 1014.9
20260906061102 23 223 0.0 0.0 0.00 0.00 0.00 88 1015.0
20260906060559 23 223 0.0 0.0 0.00 0.00 0.00 87 1015.0
20260906060056 23 223 0.0 0.0 0.00 0.00 0.00 87 1014.9
20260906055551 24 223 0.0 0.0 0.00 0.00 0.00 87 1015.1
20260906055046 24 223 0.0 0.0 0.00 0.00 0.00 87 1015.0
20260906054541 24 223 0.0 0.0 0.00 0.00 0.00 86 1014.8
20260906054036 24 223 0.0 0.0 0.00 0.00 0.00 86 1015.0
20260906053533 24 223 0.0 0.0 0.00 0.00 0.00 85 1014.8
20260906053028 24 223 0.0 0.0 0.00 0.00 0.00 85 1015.2
20260906052523 24 223 0.0 0.0 0.00 0.00 0.00 84 1015.0
20260906052021 24 223 0.0 0.0 0.00 0.00 0.00 84 1014.9
20260906051516 25 223 0.0 0.0 0.00 0.00 0.00 84 1014.8
20260906051011 25 223 0.0 0.0 0.00 0.00 0.00 83 1014.8
20260906050511 25 223 0.0 0.0 0.00 0.00 0.00 83 1014.9
20260906050006 25 223 0.0 0.0 0.00 0.00 0.00 83 1015.1
20260906045504 25 223 0.0 0.0 0.00 0.00 0.00 81 1014.9
20260906045000 25 223 0.0 0.0 0.00 0.00 0.00 83 1014.9
20260906044455 25 223 0.0 0.0 0.00 0.00 0.00 82 1015.1
20260906043951 25 223 0.0 0.0 0.00 0.00 0.00 83 1015.0
20260906043447 25 223 0.0 0.0 0.00 0.00 0.00 83 1015.1
20260906042943 25 223 0.0 0.0 0.00 0.00 0.00 82 1015.0
20260906042442 25 223 0.0 0.0 0.00 0.00 0.00 81 1014.9
20260906041936 25 223 0.0 0.0 0.00 0.00 0.00 81 1015.0
20260906041433 25 223 0.0 0.0 0.00 0.00 0.00 80 1015.1
20260906040932 25 223 0.0 0.0 0.00 0.00 0.00 80 1014.8
20260906040427 25 223 0.0 0.0 0.00 0.00 0.00 80 1014.8
20260906035923 25 223 0.0 0.0 0.00 0.00 0.00 81 1014.7
20260906035418 25 223 0.0 0.0 0.00 0.00 0.00 80 1014.8
20260906034913 25 223 0.0 0.0 0.00 0.00 0.00 80 1014.8
20260906034413 25 223 0.0 0.0 0.00 0.00 0.00 80 1014.8
20260906033909 25 223 0.0 0.0 0.00 0.00 0.00 79 1014.9
20260906033409 25 223 0.0 0.0 0.00 0.00 0.00 80 1014.8
20260906032905 25 223 0.0 0.0 0.00 0.00 0.00 81 1014.7
20260906032401 26 223 0.0 0.0 0.00 0.00 0.00 81 1014.9
20260906031901 26 223 0.0 0.0 0.00 0.00 0.00 77 1014.9
20260906031356 26 223 0.0 0.0 0.00 0.00 0.00 78 1014.6
20260906030851 26 223 0.0 0.0 0.00 0.00 0.00 80 1014.8
20260906030347 26 223 0.0 0.0 0.00 0.00 0.00 78 1014.8
20260906025847 26 223 0.0 0.0 0.00 0.00 0.00 78 1014.6
20260906025341 26 223 0.0 0.0 0.00 0.00 0.00 78 1014.6
20260906024840 26 223 0.0 0.0 0.00 0.00 0.00 78 1014.2
20260906024339 27 223 0.0 0.0 0.00 0.00 0.00 75 1014.3
20260906023835 27 223 0.0 0.0 0.00 0.00 0.00 74 1014.6
20260906023330 27 223 0.0 0.0 0.00 0.00 0.00 74 1014.5
20260906022826 27 223 0.0 0.0 0.00 0.00 0.00 73 1014.3
20260906022321 27 223 0.0 0.0 0.00 0.00 0.00 71 1014.2
20260906021816 27 223 0.0 0.0 0.00 0.00 0.00 71 1014.3
20260906021316 27 223 0.0 0.0 0.00 0.00 0.00 73 1013.9
20260906020816 27 223 0.0 0.0 0.00 0.00 0.00 71 1013.8
20260906020315 27 223 0.0 0.0 0.00 0.00 0.00 73 1013.7
20260906015309 27 223 0.0 0.0 0.00 0.00 0.00 74 1013.6
20260906014809 27 223 0.0 0.0 0.00 0.00 0.00 74 1013.6
20260906014304 27 223 0.0 0.0 0.00 0.00 0.00 72 1013.7
20260906013801 27 223 0.0 0.0 0.00 0.00 0.00 71 1013.4
20260906013301 27 223 0.0 0.0 0.00 0.00 0.00 71 1013.3
20260906012756 27 223 0.0 0.0 0.00 0.00 0.00 72 1013.3
20260906012251 28 223 0.0 0.0 0.00 0.00 0.00 72 1013.3
20260906011746 28 223 0.0 0.0 0.00 0.00 0.00 68 1013.1
20260906011246 28 223 0.0 0.0 0.00 0.00 0.00 70 1013.1
20260906010742 28 223 0.0 0.0 0.00 0.00 0.00 66 1013.2
20260906010238 28 223 0.0 0.0 0.00 0.00 0.00 66 1013.0
20260906005733 28 223 0.0 0.0 0.00 0.00 0.00 69 1013.2
20260906005232 28 223 0.0 0.0 0.00 0.00 0.00 69 1013.2
20260906004731 29 223 0.0 0.0 0.00 0.00 0.00 69 1013.1
20260906004227 29 223 0.0 0.0 0.00 0.00 0.00 65 1013.1
20260906003722 30 223 0.0 0.0 0.00 0.00 0.00 63 1012.9
20260906003217 30 223 0.0 0.0 0.00 0.00 0.00 61 1013.2
20260906002717 30 223 0.0 0.0 0.00 0.00 0.00 65 1013.1
20260906002212 30 223 0.0 0.0 0.00 0.00 0.00 60 1013.3
20260906001707 31 223 0.0 0.0 0.00 0.00 0.00 61 1013.1
20260906001207 31 223 0.0 0.0 0.00 0.00 0.00 62 1013.1
20260906000703 31 223 0.0 0.0 0.00 0.00 0.00 58 1013.1
20260906000158 31 223 0.0 0.0 0.00 0.00 0.00 57 1013.2
20260905235657 32 223 0.0 0.0 0.00 0.00 0.00 60 1013.1
20260905235152 32 223 0.0 0.0 0.00 0.00 0.00 57 1013.3
20260905234647 32 223 0.0 0.0 0.00 0.00 0.00 54 1013.2
20260905234143 32 223 0.0 0.0 0.00 0.00 0.00 58 1013.3
20260905233638 32 223 0.0 0.0 0.00 0.00 0.00 57 1013.3
20260905233137 32 223 0.0 0.0 0.00 0.00 0.00 55 1013.3
20260905232632 32 223 0.0 0.0 0.00 0.00 0.00 56 1013.2
20260905232128 32 224 0.0 0.0 0.00 0.00 0.00 53 1013.1
20260905231623 33 223 0.0 0.0 0.00 0.00 0.00 55 1013.2
20260905231120 33 224 0.0 0.0 0.00 0.00 0.00 51 1013.1
20260905230615 33 224 0.0 1.6 0.00 0.00 0.00 49 1013.0
20260905230113 33 224 0.0 0.0 0.00 0.00 0.00 47 1013.1
20260905225612 33 231 0.0 0.0 0.00 0.00 0.00 47 1013.1
20260905225108 34 230 0.0 1.6 0.00 0.00 0.00 46 1013.0
20260905224608 35 47 0.0 1.6 0.00 0.00 0.00 44 1013.0
20260905224107 35 47 0.0 1.6 0.00 0.00 0.00 45 1013.2
20260905223604 35 265 0.0 1.6 0.00 0.00 0.00 44 1013.2
20260905223101 35 283 0.0 1.6 0.00 0.00 0.00 43 1013.1
20260905222600 35 286 0.0 1.6 0.00 0.00 0.00 43 1013.0
20260905222055 35 286 0.0 1.6 0.00 0.00 0.00 41 1013.2
20260905221552 36 287 0.0 0.0 0.00 0.00 0.00 40 1013.1
20260905221048 36 290 1.6 1.6 0.00 0.00 0.00 38 1013.1
20260905220543 36 6 1.6 1.6 0.00 0.00 0.00 39 1013.1
20260905220039 36 73 0.0 3.2 0.00 0.00 0.00 38 1013.2
20260905215538 37 50 1.6 4.8 0.00 0.00 0.00 36 1013.1
20260905215035 37 39 1.6 4.8 0.00 0.00 0.00 35 1013.2
20260905214530 37 174 1.6 1.6 0.00 0.00 0.00 35 1013.1
20260905214025 38 332 0.0 1.6 0.00 0.00 0.00 35 1013.1
20260905213520 38 324 0.0 1.6 0.00 0.00 0.00 35 1013.2
20260905213016 38 268 1.6 1.6 0.00 0.00 0.00 34 1013.3
20260905212511 37 348 0.0 3.2 0.00 0.00 0.00 36 1013.4
20260905212010 38 240 3.2 3.2 0.00 0.00 0.00 34 1013.2
20260905211506 38 279 1.6 3.2 0.00 0.00 0.00 36 1013.1
20260905211001 38 87 0.0 0.0 0.00 0.00 0.00 37 1013.2
20260905210457 37 29 0.0 3.2 0.00 0.00 0.00 36 1013.3
20260905205956 37 278 1.6 3.2 0.00 0.00 0.00 36 1013.3
20260905205451 37 257 3.2 4.8 0.00 0.00 0.00 37 1013.4
20260905204949 37 280 0.0 0.0 0.00 0.00 0.00 38 1013.4
20260905204445 37 280 0.0 6.4 0.00 0.00 0.00 38 1013.4
20260905203944 36 283 0.0 3.2 0.00 0.00 0.00 39 1013.6
20260905203440 37 254 0.0 3.2 0.00 0.00 0.00 40 1013.7
20260905202936 37 273 1.6 1.6 0.00 0.00 0.00 37 1013.7
20260905202431 36 304 0.0 3.2 0.00 0.00 0.00 38 1014.2
20260905201926 36 43 0.0 1.6 0.00 0.00 0.00 41 1014.1
20260905201421 36 247 3.2 4.8 0.00 0.00 0.00 37 1013.9
20260905200921 36 74 1.6 1.6 0.00 0.00 0.00 38 1014.2
20260905200417 37 66 3.2 4.8 0.00 0.00 0.00 37 1014.2
20260905195915 36 51 1.6 1.6 0.00 0.00 0.00 37 1014.1
20260905195410 36 34 3.2 4.8 0.00 0.00 0.00 38 1014.4
20260905194906 35 30 0.0 4.8 0.00 0.00 0.00 40 1014.3
20260905194406 36 348 0.0 1.6 0.00 0.00 0.00 45 1014.3
20260905193906 36 48 0.0 4.8 0.00 0.00 0.00 37 1014.3
20260905193400 36 74 0.0 0.0 0.00 0.00 0.00 40 1014.4
20260905192856 36 73 0.0 1.6 0.00 0.00 0.00 38 1014.6
20260905192351 36 136 1.6 4.8 0.00 0.00 0.00 36 1014.5
20260905191851 36 5 0.0 4.8 0.00 0.00 0.00 40 1014.7
20260905191350 36 49 1.6 3.2 0.00 0.00 0.00 38 1014.6
20260905190849 36 26 0.0 3.2 0.00 0.00 0.00 40 1014.7
20260905190348 36 31 0.0 3.2 0.00 0.00 0.00 40 1014.8
20260905185847 35 72 1.6 3.2 0.00 0.00 0.00 40 1014.8
20260905185343 33 105 0.0 1.6 0.00 0.00 0.00 45 1014.7
20260905184841 33 175 1.6 3.2 0.00 0.00 0.00 47 1015.0
20260905184341 33 252 0.0 1.6 0.00 0.00 0.00 54 1015.0
20260905183839 33 37 0.0 0.0 0.00 0.00 0.00 53 1015.1
20260905183336 33 37 0.0 1.6 0.00 0.00 0.00 52 1015.2
20260905182836 33 37 0.0 0.0 0.00 0.00 0.00 49 1015.2
20260905182335 33 37 0.0 1.6 0.00 0.00 0.00 52 1015.2
20260905181831 33 37 0.0 0.0 0.00 0.00 0.00 49 1015.2
20260905181330 34 37 0.0 0.0 0.00 0.00 0.00 47 1015.3
20260905180829 34 37 0.0 0.0 0.00 0.00 0.00 51 1015.4
20260905180326 35 37 0.0 1.6 0.00 0.00 0.00 40 1015.3
20260905175820 35 26 0.0 1.6 0.00 0.00 0.00 42 1015.3
20260905175320 36 41 0.0 1.6 0.00 0.00 0.00 43 1015.3
20260905174815 36 50 1.6 3.2 0.00 0.00 0.00 38 1015.5
20260905174311 36 83 0.0 3.2 0.00 0.00 0.00 38 1015.4
20260905173807 37 279 4.8 4.8 0.00 0.00 0.00 41 1015.6
20260905173302 37 239 0.0 1.6 0.00 0.00 0.00 41 1015.8
20260905172802 36 51 1.6 1.6 0.00 0.00 0.00 38 1015.6
20260905172301 36 47 1.6 3.2 0.00 0.00 0.00 40 1015.5
20260905171757 36 65 1.6 3.2 0.00 0.00 0.00 40 1015.7
20260905171253 36 65 1.6 3.2 0.00 0.00 0.00 44 1015.9
20260905170749 36 286 3.2 3.2 0.00 0.00 0.00 40 1016.1
20260905170245 36 286 1.6 3.2 0.00 0.00 0.00 43 1016.0
20260905165744 36 8 0.0 1.6 0.00 0.00 0.00 42 1016.2
20260905165240 36 310 1.6 3.2 0.00 0.00 0.00 43 1016.3
20260905164740 36 276 0.0 1.6 0.00 0.00 0.00 46 1016.1
20260905164234 36 65 1.6 1.6 0.00 0.00 0.00 45 1016.2
20260905163730 36 291 1.6 3.2 0.00 0.00 0.00 45 1016.1
20260905163226 36 243 0.0 1.6 0.00 0.00 0.00 45 1016.2
20260905162722 35 310 0.0 1.6 0.00 0.00 0.00 47 1016.4
20260905162222 35 311 0.0 1.6 0.00 0.00 0.00 51 1016.2
20260905161717 35 299 3.2 3.2 0.00 0.00 0.00 49 1016.5
20260905161215 34 298 0.0 1.6 0.00 0.00 0.00 51 1016.2
20260905160714 34 308 1.6 3.2 0.00 0.00 0.00 50 1016.3
20260905160214 33 322 0.0 1.6 0.00 0.00 0.00 53 1016.4